Location: Asheville, NC
(35.6000°N, 82.5500°W)
Time: 08:54:40
(UTC-05:00)

XW-2F - Pass Details

Date: 03 January 2018
Orbit: 507 x 528 km, 97.5° (Epoch: 18 January)

Event Time Altitude Azimuth Distance (km) Brightness Sun altitude
Rises 18:22:00 0° 185° (S) 2,641 ? -10.5°
Reaches altitude 10° 18:24:12 10° 194° (SSW) 1,759 ? -11.0°
Maximum altitude 18:27:43 36° 262° (W) 843 ? -11.6°
Drops below altitude 10° 18:31:17 10° 330° (NNW) 1,774 ? -12.3°
Sets 18:33:31 0° 339° (NNW) 2,667 ? -12.7°
